Retour au catalogue

NIMBUS 6

ActifMétéoSSO
NORAD 7924·PAYLOAD·🇺🇸 United States

Lancé Jun 12, 1975 depuis Vandenberg Space Force Base

Loading…

Prochains Passages (prochaines 24 heures)

TLE

FraisSource: Space-Track

Époque: Sep 14, 2026, 05:38 UTC

1 07924U 75052A   26257.23475197 -.00000020  00000-0  43706-4 0  9998
2 07924  99.9946 168.3652 0008134  12.8474 150.8518 13.40825796508065

Suivez NIMBUS 6 en temps réel avec AllMySat

Download on the App Store